Friday Harbor, WA
on Thursday, November 8, 2012

Thursday
Previous Day Next Day
Daily Summary
 ActualAverageRecord
Temperature
Mean Temperature °F °F  
Max Temperature 48°F 49°F 57°F (2008)
Min Temperature 36°F 38°F 36°F (2001)
Degree Days
Heating Degree Days 23    
Moisture
Dew Point 35°F   
Average Humidity 74    
Maximum Humidity 93    
Minimum Humidity 56    
Precipitation
Precipitation 0.00 in in in ()
Wind
Wind Speed 5 mph   
Max Wind Speed 15 mph   
Max Gust Speed 26 mph   
Visibility 10 miles   
Events     
Averages and records for this station are not official NWS values.
Key: T is trace of precipitation, MM is missing value
Source: NWS Daily Summary
Seasonal Weather Averages
Time(PST)TemperatureDew PointHumidity Pressure Visibility Wind DirectionWind SpeedGust SpeedPrecipitationEvents Conditions
12:53 AM 44.1°F 36.0°F 73% 29.95 in 10.0 miles ENE 4.6 mph - N/A   Clear
1:53 AM 39.9°F 36.0°F 86% 29.94 in 10.0 miles Calm Calm - N/A   Scattered Clouds
2:53 AM 37.9°F 35.1°F 89% 29.93 in 10.0 miles Calm Calm - N/A   Clear
3:53 AM 37.0°F 35.1°F 93% 29.92 in 10.0 miles Calm Calm - N/A   Unknown
4:53 AM 36.0°F 34.0°F 93% 29.91 in 10.0 miles Calm Calm - N/A   Clear
5:53 AM 39.0°F 35.1°F 86% 29.91 in 10.0 miles Calm Calm - N/A   Clear
6:53 AM 36.0°F 33.1°F 89% 29.90 in 10.0 miles NNW 3.5 mph - N/A   Clear
7:53 AM 43.0°F 36.0°F 76% 29.91 in 10.0 miles North 8.1 mph - N/A   Clear
8:53 AM 46.0°F 37.0°F 71% 29.90 in 10.0 miles North 11.5 mph 18.4 mph N/A   Clear
9:53 AM 46.9°F 37.9°F 71% 29.89 in 10.0 miles North 15.0 mph 21.9 mph N/A   Clear
10:53 AM 48.0°F 37.9°F 68% 29.88 in 10.0 miles North 10.4 mph 20.7 mph N/A   Unknown
11:53 AM 48.9°F 37.9°F 66% 29.86 in 10.0 miles North 15.0 mph 26.5 mph N/A   Clear
12:53 PM 48.9°F 37.9°F 66% 29.86 in 10.0 miles North 15.0 mph 25.3 mph N/A   Clear
1:53 PM 48.9°F 37.0°F 64% 29.86 in 10.0 miles North 10.4 mph 18.4 mph N/A   Clear
2:53 PM 48.9°F 34.0°F 56% 29.86 in 10.0 miles NNW 6.9 mph - N/A   Clear
3:53 PM 48.0°F 33.1°F 56% 29.86 in 10.0 miles Calm Calm - N/A   Clear
4:53 PM 46.0°F 33.1°F 61% 29.86 in 10.0 miles Variable 4.6 mph - N/A   Clear
5:53 PM 44.1°F 33.1°F 65% 29.85 in 10.0 miles NNW 5.8 mph - N/A   Clear
6:53 PM 45.0°F 34.0°F 65% 29.86 in 10.0 miles Variable 3.5 mph - N/A   Clear
7:53 PM 44.1°F 35.1°F 71% 29.86 in 10.0 miles Variable 4.6 mph - N/A   Clear
8:53 PM 41.0°F 35.1°F 79% 29.86 in 10.0 miles Calm Calm - N/A   Clear
9:53 PM 44.1°F 35.1°F 71% 29.86 in 10.0 miles Variable 5.8 mph - N/A   Clear
10:53 PM 43.0°F 35.1°F 74% 29.87 in 10.0 miles Variable 3.5 mph - N/A   Clear
11:53 PM 42.1°F 35.1°F 76% 29.88 in 10.0 miles Calm Calm - N/A   Clear
Moon Phase
Nov. 08 Nov. 13 Nov. 20 Nov. 28 Dec. 06
Sunrise:07:10 AM (PST) Moon Rise:12:43 AM (PST)11/8
Sunset:04:40 PM (PST) Moon Set:01:49 PM (PST)11/8

Copyright © 2014 The Weather Underground, Inc.